CAPE
0 0 0 0 0 0 0 0 0 0 0 15 30 142 252 56 97 411 556 637 638 944 1427 1917 2049 1866 1691 1317 921 1045 1057 1070 1179 1312 1388 1294 1329 1323 1209 1108 1216 1236 599 462 373 326 174 24 0
0 0 0 0 0 0 0 0 0 0 0 95 170 150 206 394 439 719 444 474 408 995 1314 1793 2082 1877 1608 1114 936 1135 1134 1175 1207 1322 1401 1256 1208 1262 1225 1274 1349 1237 652 505 371 128 1 0 0
0 0 0 0 0 0 0 0 0 0 0 5 166 711 601 240 69 770 262 287 505 521 1238 1830 1972 1703 1415 1052 1100 1183 1244 1234 1249 1254 1299 1219 1141 1183 1240 1338 1365 1280 635 409 155 1 0 0 0
0 0 0 0 0 0 0 0 0 0 0 0 38 888 1042 94 172 581 493 228 215 441 1142 1769 1738 1481 1317 1173 1199 1280 1393 1294 1232 1226 1195 1145 1193 1282 1345 1415 1330 1125 577 103 0 0 0 0 0
0 0 0 0 0 0 0 0 0 0 0 0 0 753 635 53 0 360 253 134 70 1077 1312 1480 1642 1560 1442 1327 1345 1319 1325 1221 1187 1154 1163 1232 1328 1304 1222 1009 750 598 377 60 0 0 0 0 0
0 0 0 0 0 0 0 0 0 0 0 0 0 1151 798 120 86 448 192 89 602 1082 1305 1330 1520 1473 1350 1280 1255 1143 1075 1114 1107 1019 1071 1202 1180 1078 870 746 601 385 111 11 0 0 0 0 0
0 0 0 0 0 0 0 0 0 0 0 0 0 1490 1031 974 811 446 174 167 825 944 1134 1113 1181 1316 1418 1184 1065 941 881 937 911 903 927 973 936 832 727 553 292 100 18 0 0 0 0 6 86
0 0 0 0 0 0 0 0 0 0 0 0 0 633 1209 1150 1009 671 155 592 409 813 979 1010 1174 973 850 814 1113 985 963 888 837 907 842 819 789 721 570 158 95 63 0 0 0 2 101 192 265
0 0 0 0 0 0 0 0 0 0 0 0 19 948 1190 1339 1184 393 292 226 217 490 722 728 828 688 633 711 796 993 864 925 940 822 771 503 132 126 102 27 32 72 25 62 140 245 296 350 455
0 0 0 0 0 0 0 0 0 0 0 0 1723 1701 1483 1442 1317 666 287 152 144 128 204 382 310 266 322 537 453 340 343 392 201 186 256 12 0 0 0 0 182 94 165 177 281 365 425 674 303
0 0 0 0 0 0 0 0 0 0 0 0 628 1742 1503 1467 1336 979 363 310 155 63 50 38 27 0 38 254 24 49 43 11 0 1 1 0 0 0 0 0 25 0 50 0 13 24 154 201 328
0 0 0 0 0 0 0 0 0 0 0 0 0 1566 1397 1464 1374 1267 613 345 102 108 34 14 2 0 0 4 0 0 0 0 0 0 0 0 0 0 0 0 0 0 0 0 11 271 199 307 49
0 0 0 0 0 0 0 0 0 0 0 0 0 530 1354 1394 1242 1311 794 434 158 109 60 21 1 0 0 0 0 0 0 0 0 0 0 0 33 3 0 0 0 0 13 88 766 437 236 62 0
0 0 0 0 0 0 0 0 0 0 0 0 0 0 201 1224 1060 1043 806 466 210 66 46 36 2 129 1 0 0 0 0 1 9 99 87 116 96 103 0 1 0 0 650 312 273 129 50 0 0
0 0 0 0 0 0 0 0 0 0 0 0 0 0 0 768 1006 1078 1011 568 262 81 67 65 52 134 11 0 0 0 0 3 68 304 264 143 326 137 19 0 0 50 667 248 0 0 0 0 0
0 0 0 0 0 0 0 0 0 0 0 0 0 0 0 92 928 1023 1081 743 301 141 220 116 260 117 223 4 43 99 135 31 65 152 244 148 154 238 135 1 777 668 381 0 0 0 0 0 0
0 0 0 0 0 0 0 0 0 0 0 0 0 0 0 0 518 251 665 1073 386 458 422 340 457 567 1269 386 1160 652 622 438 184 197 140 53 195 225 76 871 537 59 0 0 0 0 0 0 0
0 0 0 0 0 0 0 0 0 0 0 0 0 0 0 0 432 616 475 675 792 851 745 698 698 1403 1140 1574 1214 922 1434 671 407 241 167 39 66 152 863 710 458 0 0 0 0 0 0 0 0
0 0 0 0 0 0 0 0 0 0 0 0 0 0 0 0 6 539 106 541 290 961 981 1011 948 1474 1255 1400 1222 953 1242 746 656 217 255 53 37 748 675 223 35 0 0 0 0 0 0 0 0
2 0 0 0 0 0 0 0 0 0 0 0 0 0 0 0 448 385 281 4 217 1164 1288 1135 1292 1508 1489 1087 1171 918 1142 726 157 171 115 163 1033 632 267 69 0 0 0 0 0 0 0 0 0
4 1 10 0 0 0 0 0 0 0 0 0 0 0 0 0 135 193 12 295 540 0 1379 1303 1571 1543 1694 1460 1140 700 448 1088 1361 994 1405 1351 751 384 333 73 0 0 0 0 0 0 0 0 0
2 74 5 15 51 9 0 0 0 0 0 0 0 0 0 0 0 746 394 173 53 93 424 1590 1971 1976 1708 1434 559 294 270 1194 1332 1249 983 779 499 389 26 0 0 0 0 0 0 0 0 0 0
7 81 44 44 16 86 0 43 0 0 0 0 0 0 0 0 0 483 0 0 0 188 1483 1846 1950 1753 1340 930 507 208 266 1359 1159 916 521 277 68 24 7 0 0 0 0 0 0 0 0 0 0
2 2 0 2 17 42 1 10 0 0 0 0 0 0 0 0 3 1130 0 0 14 829 1976 1760 1843 1614 1212 845 693 271 1155 1268 1028 409 148 173 91 1 0 0 0 0 0 0 0 0 0 0 0
0 3 2 0 7 3 0 0 0 0 0 0 0 0 0 0 263 2111 2225 1072 1290 1875 1995 1844 1786 1518 1343 672 717 379 989 820 372 120 68 115 1 0 0 0 0 0 0 0 0 0 0 0 0
0 5 4 1 2 1 15 0 0 0 0 0 0 0 0 0 112 2036 1952 2122 2213 2152 1895 1872 1727 1496 1457 862 694 888 704 457 144 114 60 0 1 0 0 0 0 0 0 0 0 0 0 0 0
4 1 0 3 0 7 0 2 0 0 0 0 0 0 0 0 0 1325 1893 1682 1920 1968 1873 1842 1812 1521 1434 793 1400 1025 621 314 218 48 0 0 0 0 0 0 0 0 0 0 0 0 0 0 0
0 15 11 7 23 7 28 4 0 11 0 0 0 0 0 0 0 53 1781 1417 1238 1816 2019 1864 1830 1547 1283 1413 1548 1092 177 26 0 1 2 0 0 0 0 0 0 0 0 0 0 0 0 0 0
0 5 3 4 8 11 54 52 258 77 17 3 0 0 0 0 0 203 1576 885 262 977 1689 1667 1677 1593 1412 880 158 5 0 0 0 0 0 0 0 0 0 0 0 0 0 0 0 0 0 0 0
0 0 0 0 1 9 6 4 63 82 72 181 0 0 0 0 0 342 1561 1481 1354 1462 1481 1391 1309 955 338 2 0 0 0 0 0 1 0 0 0 0 0 0 0 0 0 0 0 0 0 0 0
CIN
-0 -0 -0 -0 -0 -0 -0 -0 -0 -0 -0 -52 -98 -149 -236 -321 -291 -83 -179 -386 -507 -395 -275 -162 -125 -137 -153 -207 -278 -222 -203 -171 -146 -101 -73 -96 -86 -88 -106 -109 -94 -85 -167 -172 -167 -171 -215 -347 -0
-0 -0 -0 -0 -0 -0 -0 -0 -0 -0 -0 -191 -311 -374 -301 -232 -182 -150 -192 -383 -480 -390 -267 -180 -119 -128 -145 -224 -249 -191 -164 -139 -111 -81 -61 -77 -88 -85 -91 -78 -77 -87 -159 -173 -189 -278 -226 -0 -0
-0 -0 -0 -0 -0 -0 -0 -0 -0 -0 -0 -16 -195 -196 -292 -322 -401 -290 -125 -362 -513 -450 -266 -158 -115 -148 -164 -227 -208 -186 -133 -107 -102 -92 -68 -79 -102 -96 -91 -64 -74 -90 -167 -208 -280 -145 -0 -0 -0
-0 -0 -0 -0 -0 -0 -0 -0 -0 -0 -0 -0 -32 -140 -212 -447 -445 -490 -177 -236 -527 -507 -279 -157 -149 -161 -176 -198 -181 -167 -123 -97 -92 -88 -85 -71 -81 -76 -73 -59 -78 -112 -190 -357 -0 -0 -0 -0 -0
-0 -0 -0 -0 -0 -0 -0 -0 -0 -0 -0 -0 -0 -82 -260 -569 -0 -441 -369 -359 -524 -343 -278 -181 -157 -149 -141 -133 -128 -145 -145 -142 -114 -83 -91 -73 -53 -55 -79 -121 -173 -202 -250 -408 -0 -0 -0 -0 -0
-0 -0 -0 -0 -0 -0 -0 -0 -0 -0 -0 -0 -0 -86 -194 -520 -617 -373 -406 -461 -421 -383 -255 -208 -156 -149 -142 -130 -106 -142 -179 -169 -162 -133 -87 -69 -68 -101 -123 -171 -198 -256 -376 -393 -0 -0 -0 -0 -0
-0 -0 -0 -0 -0 -0 -0 -0 -0 -0 -0 -0 -0 -78 -160 -77 -207 -319 -399 -532 -436 -383 -245 -227 -194 -142 -138 -131 -133 -155 -187 -175 -199 -193 -118 -95 -97 -149 -168 -215 -298 -380 -447 -0 -0 -0 -0 -128 -354
-0 -0 -0 -0 -0 -0 -0 -0 -0 -0 -0 -0 -0 -65 -106 -128 -120 -272 -461 -550 -505 -388 -253 -237 -176 -184 -223 -211 -139 -151 -170 -159 -189 -180 -156 -127 -137 -167 -224 -379 -398 -404 -0 -0 -0 -18 -342 -310 -294
-0 -0 -0 -0 -0 -0 -0 -0 -0 -0 -0 -0 -58 -76 -99 -145 -84 -232 -455 -536 -595 -437 -333 -289 -233 -232 -260 -216 -202 -168 -192 -161 -141 -177 -185 -233 -404 -410 -440 -537 -231 -404 -431 -401 -351 -313 -285 -255 -222
-0 -0 -0 -0 -0 -0 -0 -0 -0 -0 -0 -0 -57 -89 -68 -79 -74 -223 -378 -495 -613 -566 -490 -425 -384 -385 -350 -255 -288 -358 -356 -332 -385 -420 -380 -241 -0 -0 -0 -0 -369 -388 -340 -343 -303 -266 -233 -190 -249
-0 -0 -0 -0 -0 -0 -0 -0 -0 -0 -0 -0 -37 -90 -56 -82 -92 -137 -243 -394 -590 -588 -574 -614 -605 -43 -500 -364 -375 -507 -577 -740 -47 -125 -106 -0 -0 -0 -0 -0 -496 -0 -476 -0 -56 -51 -329 -247 -142
-0 -0 -0 -0 -0 -0 -0 -0 -0 -0 -0 -0 -0 -47 -106 -75 -97 -137 -168 -325 -477 -557 -538 -623 -545 -0 -0 -483 -0 -0 -0 -0 -0 -0 -0 -0 -0 -18 -0 -0 -0 -0 -0 -0 -273 -236 -251 -139 -214
-0 -0 -0 -0 -0 -0 -0 -0 -0 -0 -0 -0 -0 -15 -83 -87 -83 -83 -149 -207 -368 -448 -496 -593 -195 -0 -0 -0 -0 -0 -0 -0 -0 -0 -0 -0 -483 -73 -0 -0 -0 -0 -431 -365 -113 -120 -154 -143 -0
-0 -0 -0 -0 -0 -0 -0 -0 -0 -0 -0 -0 -0 -0 -135 -85 -90 -96 -149 -167 -254 -392 -489 -561 -658 -664 -149 -0 -0 -0 -0 -80 -462 -432 -460 -398 -380 -323 -0 -33 -0 -0 -123 -199 -155 -168 -184 -0 -0
-0 -0 -0 -0 -0 -0 -0 -0 -0 -0 -0 -0 -0 -0 -0 -43 -63 -80 -119 -153 -212 -308 -395 -534 -553 -756 -677 -0 -0 -0 -0 -74 -499 -309 -290 -327 -236 -299 -387 -0 -0 -246 -123 -192 -10 -0 -0 -0 -0
-0 -0 -0 -0 -0 -0 -0 -0 -0 -0 -0 -0 -0 -0 -0 -113 -43 -78 -117 -183 -261 -254 -356 -421 -406 -678 -584 -619 -155 -459 -436 -556 -480 -418 -306 -319 -316 -248 -281 -21 -104 -112 -160 -0 -0 -0 -0 -0 -0
-0 -0 -0 -0 -0 -0 -0 -0 -0 -0 -0 -0 -0 -0 -0 -0 -110 -220 -256 -177 -231 -203 -291 -306 -305 -332 -359 -388 -162 -215 -206 -285 -344 -367 -369 -402 -286 -263 -372 -94 -145 -427 -0 -0 -0 -0 -0 -0 -0
-0 -0 -0 -0 -0 -0 -0 -0 -0 -0 -0 -0 -0 -0 -0 -0 -164 -184 -302 -285 -145 -183 -201 -245 -235 -210 -197 -180 -168 -155 -49 -173 -257 -364 -387 -428 -392 -356 -127 -118 -165 -86 -0 -0 -0 -0 -0 -0 -0
-0 -0 -0 -0 -0 -0 -0 -0 -0 -0 -0 -0 -0 -0 -0 -0 -49 -261 -187 -367 -340 -152 -201 -232 -270 -195 -179 -177 -102 -125 -60 -147 -153 -329 -380 -452 -424 -221 -214 -268 -510 -1 -0 -0 -0 -0 -0 -0 -0
-16 -0 -0 -0 -0 -0 -0 -0 -0 -0 -0 -0 -0 -0 -0 -0 -259 -384 -384 -152 -255 -91 -155 -200 -202 -188 -184 -200 -104 -104 -100 -182 -351 -410 -445 -396 -144 -244 -346 -460 -0 -0 -0 -0 -0 -0 -0 -0 -0
-13 -19 -7 -0 -0 -0 -0 -0 -0 -0 -0 -0 -0 -0 -0 -0 -194 -342 -221 -248 -140 -0 -81 -181 -171 -143 -117 -131 -158 -185 -249 -112 -88 -174 -135 -129 -172 -271 -265 -418 -0 -0 -0 -0 -0 -0 -0 -0 -0
-0 -17 -15 -74 -45 -20 -0 -0 -0 -0 -0 -0 -0 -0 -0 -0 -0 -206 -304 -299 -230 -209 -22 -101 -116 -86 -118 -145 -293 -306 -307 -87 -66 -106 -160 -159 -222 -220 -441 -0 -0 -0 -0 -0 -0 -0 -0 -0 -0
-15 -31 -60 -38 -50 -18 -0 -4 -0 -0 -0 -0 -0 -0 -0 -0 -2 -304 -0 -0 -0 -342 -12 -103 -108 -118 -184 -231 -294 -376 -289 -70 -70 -116 -230 -293 -414 -434 -444 -0 -0 -0 -0 -0 -0 -0 -0 -0 -0
-5 -67 -0 -44 -42 -9 -30 -9 -0 -0 -0 -0 -0 -0 -0 -0 -15 -218 -0 -0 -326 -344 -47 -109 -104 -120 -186 -256 -254 -353 -128 -67 -112 -256 -310 -315 -354 -109 -0 -0 -0 -0 -0 -0 -0 -0 -0 -0 -0
-0 -66 -10 -3 -3 -70 -32 -0 -0 -0 -0 -0 -0 -0 -0 -0 -52 -49 -75 -121 -100 -28 -46 -64 -83 -111 -136 -282 -248 -308 -167 -191 -297 -365 -384 -364 -0 -0 -0 -0 -0 -0 -0 -0 -0 -0 -0 -0 -0
-0 -0 -0 -0 -2 -27 -106 -0 -0 -0 -0 -0 -0 -0 -0 -0 -20 -37 -69 -70 -68 -65 -66 -45 -90 -109 -117 -214 -218 -131 -198 -260 -363 -396 -424 -51 -0 -0 -0 -0 -0 -0 -0 -0 -0 -0 -0 -0 -0
-0 -0 -0 -0 -0 -0 -0 -38 -0 -0 -0 -0 -0 -0 -0 -0 -0 -44 -87 -109 -62 -56 -48 -54 -48 -72 -71 -189 -32 -91 -189 -294 -337 -364 -0 -0 -0 -0 -0 -0 -0 -0 -0 -0 -0 -0 -0 -0 -0
-1 -3 -0 -0 -0 -4 -73 -85 -0 -22 -13 -0 -0 -0 -0 -0 -0 -21 -95 -150 -132 -48 -30 -33 -14 -33 -49 -31 -30 -50 -345 -270 -0 -0 -0 -0 -0 -0 -0 -0 -0 -0 -0 -0 -0 -0 -0 -0 -0
-0 -17 -0 -0 -0 -1 -5 -48 -113 -320 -394 -243 -0 -0 -0 -0 -0 -42 -186 -281 -437 -137 -25 -27 -28 -23 -26 -113 -353 -171 -0 -0 -0 -0 -0 -0 -0 -0 -0 -0 -0 -0 -0 -0 -0 -0 -0 -0 -0
-0 -1 -0 -1 -0 -0 -2 -140 -269 -344 -419 -276 -0 -0 -0 -0 -0 -36 -185 -121 -57 -44 -66 -19 -44 -77 -263 -27 -0 -0 -0 -0 -0 -0 -0 -0 -0 -0 -0 -0 -0 -0 -0 -0 -0 -0 -0 -0 -0
Wind_Speed
10 7 3 3 4 2 5 11 8 16 17 6 8 8 9 9 12 5 4 18 21 15 14 15 19 20 20 19 19 19 19 17 15 14 13 14 14 14 14 13 14 13 13 11 9 8 7 6 5
5 7 1 3 4 2 10 15 17 19 23 6 16 17 12 7 7 10 5 13 18 16 10 13 20 20 19 19 19 19 19 17 15 14 13 13 13 14 13 12 13 12 11 10 8 6 5 3 3
6 6 0 5 5 12 10 8 13 19 23 12 8 2 12 14 5 9 3 15 18 13 10 14 18 21 20 20 19 20 18 17 16 15 13 13 13 13 12 11 11 11 10 9 7 4 2 2 2
3 2 4 2 11 14 20 10 15 22 24 14 3 9 5 15 18 14 18 15 17 13 10 16 19 18 20 21 20 20 19 17 15 14 14 12 12 12 11 10 10 9 9 8 6 4 1 2 4
2 3 4 6 15 13 15 17 21 25 18 17 13 6 19 20 18 24 32 20 18 13 13 12 19 20 20 19 19 20 20 18 16 14 14 14 12 11 10 10 9 8 7 6 5 4 3 4 7
4 3 3 13 18 13 15 17 18 19 18 20 6 9 11 21 22 23 25 22 18 17 12 13 18 20 20 20 18 18 19 18 17 15 13 12 12 11 9 9 8 7 7 6 5 5 5 8 10
4 4 8 12 14 14 16 18 14 20 20 24 11 3 11 20 28 27 25 23 20 17 12 11 12 16 23 20 18 17 17 17 17 16 13 12 10 10 9 8 8 7 7 6 6 7 8 9 10
4 3 6 10 13 21 15 20 11 16 23 22 16 8 19 16 24 22 23 24 21 18 14 10 11 12 11 14 19 17 17 16 15 15 13 11 11 10 9 9 8 8 8 8 9 9 10 10 11
7 10 14 14 15 15 14 16 19 12 14 13 11 7 21 22 25 23 21 20 19 15 15 13 11 9 10 11 14 17 18 16 14 13 14 9 4 6 7 8 9 10 10 10 11 10 10 11 11
6 7 17 12 13 15 19 20 22 17 20 18 10 19 18 20 22 26 23 20 21 20 17 14 13 11 11 9 10 9 10 7 6 6 7 5 6 6 7 8 12 12 10 12 12 10 9 9 4
9 15 16 16 18 17 22 28 22 19 22 15 5 19 19 21 19 21 21 23 23 21 16 18 15 12 12 10 7 5 5 5 5 7 7 6 4 5 5 4 4 4 7 4 6 3 3 5 4
12 16 17 19 20 23 23 21 24 16 20 17 3 16 21 20 18 23 21 22 23 22 20 19 19 14 10 9 7 7 6 6 5 6 8 5 4 5 5 3 5 4 3 7 1 3 4 2 5
11 12 14 17 19 19 22 23 22 23 22 18 12 8 20 20 18 18 20 20 23 22 21 20 20 15 13 13 6 7 7 6 6 6 7 5 4 5 4 3 3 2 3 2 3 2 4 5 5
11 16 19 18 17 15 19 20 13 25 16 17 16 3 12 22 18 12 17 20 22 22 23 22 20 20 16 11 10 9 6 7 6 6 6 7 4 3 3 1 1 2 4 4 4 4 4 4 4
13 15 18 18 16 13 15 18 19 22 14 18 16 10 7 16 21 20 19 24 23 18 22 22 19 23 19 15 11 10 8 8 6 7 8 8 5 3 3 1 2 3 2 6 6 5 6 5 5
13 9 8 10 12 15 13 16 20 16 12 18 17 13 12 7 19 16 17 21 19 17 21 20 16 21 20 14 10 8 7 8 6 6 7 7 6 5 3 3 2 3 3 5 5 5 5 4 5
7 9 13 17 16 16 13 18 19 15 16 16 17 14 12 6 9 4 7 19 22 19 22 19 17 17 19 15 7 7 7 5 5 5 6 7 7 7 5 4 4 5 5 6 5 5 4 4 4
9 8 9 12 10 17 16 20 18 18 19 15 15 17 14 5 7 13 7 9 18 21 22 18 15 13 10 9 6 5 4 4 4 6 7 8 6 7 6 5 5 5 5 5 4 4 4 3 3
11 9 13 16 15 16 17 20 19 19 17 20 20 16 16 7 7 21 13 7 12 15 19 19 16 12 11 6 4 4 3 2 2 3 9 8 6 9 8 5 6 5 5 5 4 3 4 4 4
22 12 14 13 15 15 20 20 22 20 17 19 19 17 18 5 10 13 19 22 7 7 15 16 15 14 11 9 4 3 4 3 4 5 7 7 9 9 7 7 6 6 5 6 6 5 1 2 3
16 12 16 15 16 13 17 20 18 21 19 19 20 18 16 12 16 13 13 14 16 19 8 17 16 15 11 11 6 4 5 4 4 5 6 6 8 8 7 7 7 6 5 5 5 4 5 2 3
18 17 5 9 19 12 4 9 13 16 17 19 18 16 18 14 9 18 20 17 25 28 17 12 11 13 9 13 8 8 4 5 2 5 7 7 7 7 9 8 9 9 6 6 5 4 5 4 4
14 2 3 8 11 8 10 3 12 15 15 13 16 15 19 14 10 26 22 20 14 13 17 9 11 10 9 11 12 7 7 6 6 7 10 8 8 8 8 9 11 9 6 6 6 6 6 5 2
6 3 2 5 3 6 12 9 9 12 18 13 13 13 15 14 12 25 29 25 20 19 15 12 13 11 10 9 9 10 12 12 9 8 8 7 6 7 9 11 9 9 6 6 5 5 7 5 4
5 5 4 4 3 7 4 11 16 10 15 18 20 14 12 14 16 22 27 29 29 26 21 18 18 15 14 12 11 12 15 15 15 11 8 9 8 7 8 11 9 8 6 6 5 6 5 5 3
3 3 2 4 3 5 7 13 12 19 23 14 19 14 10 9 12 23 25 23 22 23 21 19 19 16 15 14 14 11 14 9 9 10 9 8 8 9 10 11 10 7 7 6 6 5 4 3 4
4 7 4 4 8 5 7 8 9 20 19 15 23 15 9 8 6 19 18 13 15 17 20 20 18 16 16 15 9 14 11 12 10 11 11 9 12 10 11 11 10 9 8 7 7 5 3 4 4
5 5 1 2 5 2 9 8 11 8 17 16 26 23 18 10 9 14 22 17 7 10 15 17 17 17 15 10 11 10 9 13 13 13 12 13 12 14 12 11 9 8 6 6 4 4 4 5 4
1 2 4 2 4 3 4 5 8 9 11 14 22 26 25 16 14 15 26 26 28 19 14 18 18 17 13 13 15 16 13 14 14 13 13 13 14 13 12 10 9 8 7 6 6 5 6 6 5
14 3 8 4 5 4 3 8 9 22 19 13 18 25 24 17 20 16 21 19 17 17 17 18 16 15 16 16 16 16 15 15 15 13 15 14 14 12 11 10 10 9 9 8 8 7 7 5 5
Wind_Direction
302 277 214 310 47 189 228 237 240 271 276 85 92 142 155 119 141 243 88 116 121 132 144 147 141 137 133 129 126 124 120 121 124 125 117 117 113 114 116 118 117 116 117 112 103 94 82 64 41
312 312 272 261 137 232 256 231 245 253 263 93 95 125 142 119 126 123 47 116 126 131 143 143 141 135 132 130 128 125 123 126 126 126 122 119 119 122 123 125 121 121 121 117 113 103 90 67 27
263 241 83 164 205 215 253 199 247 253 260 207 131 12 131 140 115 108 359 136 126 133 140 141 140 136 135 133 132 127 127 129 131 132 129 130 130 131 130 129 128 131 130 127 119 111 95 49 333
292 289 298 206 227 233 245 276 283 284 292 315 255 142 137 182 147 124 165 157 128 132 134 142 137 137 136 136 135 131 130 130 132 134 132 134 138 137 133 135 136 135 133 135 137 145 156 248 274
236 271 231 232 249 260 261 250 257 272 278 277 286 96 136 162 163 154 152 150 140 127 135 140 138 138 136 136 136 134 132 135 138 139 140 143 143 140 140 141 143 138 141 152 155 178 218 253 260
312 178 258 230 252 256 252 262 269 272 279 280 273 127 135 181 165 160 144 141 131 129 135 143 145 139 137 137 139 137 136 138 139 141 146 146 148 146 151 151 151 153 163 170 191 211 235 252 262
216 304 239 257 269 267 246 250 252 261 271 274 275 102 137 156 159 146 142 135 128 127 133 142 143 148 140 139 140 139 137 140 142 144 150 150 159 156 161 160 166 177 186 197 216 230 241 255 268
225 244 273 260 251 265 276 280 273 258 266 266 272 195 166 155 143 140 132 126 130 131 138 140 142 151 139 143 141 140 138 143 145 145 148 159 169 170 169 176 189 197 205 217 229 239 249 258 266
277 243 253 251 261 284 298 289 289 283 279 276 291 126 150 146 138 131 124 130 131 134 144 145 145 147 138 140 146 141 143 146 149 151 156 164 172 184 185 193 203 212 217 230 239 245 253 266 279
212 251 248 262 274 280 284 287 293 310 301 304 93 112 140 144 149 144 143 146 143 145 154 151 154 155 148 151 144 141 147 143 154 155 161 165 193 186 196 207 210 217 220 239 247 251 268 278 260
233 243 266 272 272 272 269 276 288 291 294 287 165 147 154 154 149 149 152 152 151 151 157 159 157 158 157 143 151 150 150 152 170 172 174 188 195 204 211 199 218 224 227 248 251 252 246 278 266
274 258 249 254 259 273 272 289 290 295 282 300 348 191 158 162 163 154 162 149 155 157 163 162 159 158 148 148 159 156 161 166 177 187 178 172 204 207 194 174 218 219 226 232 260 260 196 264 23
272 278 282 262 259 256 269 270 275 283 286 296 298 226 169 166 167 165 154 145 156 162 163 165 162 153 147 155 161 158 171 175 181 181 179 182 197 189 187 196 222 197 256 202 128 92 71 37 11
301 292 288 291 292 270 261 267 272 275 285 292 296 203 253 167 166 155 143 157 162 163 164 167 171 140 149 162 165 168 168 181 178 176 177 189 193 171 217 129 318 312 83 85 89 73 55 27 19
316 313 303 290 276 284 290 266 261 269 283 281 289 294 270 210 173 164 156 166 160 166 161 170 169 144 152 165 175 171 179 175 170 166 174 178 173 202 117 175 297 5 126 95 72 45 44 43 24
297 291 293 284 299 267 270 269 264 271 276 276 280 293 288 239 185 171 165 152 154 155 158 169 162 153 145 160 177 179 172 169 162 158 170 172 153 139 112 60 34 97 84 81 76 61 47 37 31
251 255 259 278 270 268 263 262 264 271 270 264 272 278 282 282 140 52 312 146 152 150 154 164 162 159 138 153 150 152 162 145 155 147 152 155 149 142 110 114 99 78 71 63 72 57 80 36 2
260 288 290 286 292 314 298 267 256 261 261 264 269 262 271 268 186 135 312 37 149 149 149 152 156 131 138 122 124 121 138 144 155 146 152 161 158 127 117 106 85 91 79 66 66 82 58 67 345
290 285 277 286 290 286 285 285 288 246 243 257 258 253 255 235 238 155 203 24 329 142 142 150 146 140 139 109 123 119 130 137 109 143 155 148 133 132 122 118 93 82 86 84 62 76 70 17 0
297 262 269 282 283 289 287 278 284 275 220 236 247 258 245 201 176 150 143 156 268 163 134 144 148 146 140 146 133 141 164 154 134 131 125 115 113 117 117 113 106 109 101 82 57 54 63 45 22
272 278 292 284 288 275 285 282 275 285 221 232 236 238 257 222 177 175 138 149 116 289 183 145 150 154 146 145 104 88 75 58 60 88 90 103 114 112 114 111 112 101 90 90 80 65 69 63 350
282 264 285 321 303 277 248 292 290 270 233 221 230 235 244 224 185 170 144 147 162 202 263 128 125 147 143 140 121 124 127 117 120 112 105 87 88 93 101 99 88 89 91 85 82 50 42 61 19
254 38 236 237 278 307 267 248 262 261 253 215 219 221 232 211 191 152 143 148 175 196 209 148 133 126 137 139 140 137 126 113 118 111 101 100 87 97 83 93 89 93 89 85 79 70 60 59 70
117 0 291 239 192 248 223 200 258 229 225 218 212 222 226 202 202 162 157 163 172 200 183 153 150 151 147 140 140 150 135 135 131 126 118 117 100 80 84 91 93 88 87 84 86 81 66 62 51
88 43 328 332 181 236 176 193 238 269 226 207 216 217 236 183 183 153 160 172 180 179 171 166 162 166 160 159 162 160 145 147 143 141 133 129 114 100 91 92 90 87 88 88 82 91 75 64 75
101 161 164 276 270 325 298 232 234 239 254 220 216 209 212 186 171 163 168 171 166 163 167 168 165 164 163 167 178 141 139 140 138 136 133 117 117 105 103 95 88 83 75 70 68 66 56 53 50
148 215 184 229 254 269 253 250 286 225 237 233 211 213 216 214 221 173 152 150 147 166 164 166 164 163 167 174 151 142 138 135 131 115 108 112 108 102 96 91 86 77 70 80 103 90 82 71 54
141 134 197 185 306 286 270 214 221 215 230 240 204 206 211 209 229 184 146 148 172 175 167 157 158 161 158 146 129 115 109 99 103 105 106 101 107 105 99 90 86 81 75 68 78 100 61 63 39
295 151 80 255 254 260 305 285 29 344 294 278 242 198 206 201 213 194 158 171 176 178 171 161 158 153 136 114 108 103 96 97 100 106 109 107 99 96 93 87 76 65 56 37 46 58 51 43 14
197 190 160 178 283 257 262 292 348 345 304 274 190 187 196 202 216 195 130 139 151 164 160 164 138 122 118 112 107 105 105 104 101 102 99 99 97 85 90 83 74 64 51 35 28 31 15 16 17